Zurück zum Katalog

CZ-6A DEB

AktivPO
NORAD 61829·DEBRIS·🇨🇳 China

Gestartet Aug 6, 2024 von Taiyuan Satellite Launch Center

Loading…

Nächste Überflüge (nächste 24 Stunden)

TLE

AktuellSource: Space-Track

Epoche: Sep 14, 2026, 00:56 UTC

1 61829U 24140ACV 26257.03946119  .00043911  00000-0  28143-2 0  9990
2 61829  89.2059 278.4253 0053782 140.5371 219.9805 15.07132221105642

Verfolge CZ-6A DEB in Echtzeit mit AllMySat

Download on the App Store